Time,TemperatureF,DewpointF,PressureIn,WindDirection,WindDirectionDegrees,WindSpeedMPH,WindSpeedGustMPH,Humidity,HourlyPrecipIn,Conditions,Clouds,dailyrainin,SoftwareType,DateUTC
2015-07-01 00:00:00,62.0,54.0,29.86,West,274,0.0,0.0,75,0.00,,,0.00,Wunderground v.1.15,2015-07-01 05:00:00,
2015-07-01 00:06:00,61.8,53.8,29.86,West,274,0.0,1.0,75,0.00,,,0.00,Wunderground v.1.15,2015-07-01 05:06:00,
2015-07-01 00:11:00,61.5,53.5,29.86,West,274,0.0,0.0,75,0.00,,,0.00,Wunderground v.1.15,2015-07-01 05:11:00,
2015-07-01 00:16:00,61.3,53.7,29.86,West,274,0.0,0.0,76,0.00,,,0.00,Wunderground v.1.15,2015-07-01 05:16:00,
2015-07-01 00:21:00,61.2,53.6,29.86,West,274,0.0,0.0,76,0.00,,,0.00,Wunderground v.1.15,2015-07-01 05:21:00,
2015-07-01 00:27:00,60.9,53.6,29.86,West,274,0.0,0.0,77,0.00,,,0.00,Wunderground v.1.15,2015-07-01 05:27:00,
2015-07-01 00:32:00,60.7,53.8,29.86,West,274,0.0,0.0,78,0.00,,,0.00,Wunderground v.1.15,2015-07-01 05:32:00,
2015-07-01 00:38:00,60.5,53.6,29.86,West,272,0.0,0.0,78,0.00,,,0.00,Wunderground v.1.15,2015-07-01 05:38:00,
2015-07-01 00:44:00,60.4,53.9,29.86,West,270,0.0,0.0,79,0.00,,,0.00,Wunderground v.1.15,2015-07-01 05:44:00,
2015-07-01 00:50:00,60.2,54.0,29.86,West,270,0.0,0.0,80,0.00,,,0.00,Wunderground v.1.15,2015-07-01 05:50:00,
2015-07-01 00:56:00,60.1,54.2,29.86,West,270,0.0,0.0,81,0.00,,,0.00,Wunderground v.1.15,2015-07-01 05:56:00,
2015-07-01 01:01:00,59.9,54.1,29.86,West,270,0.0,0.0,81,0.00,,,0.00,Wunderground v.1.15,2015-07-01 06:01:00,
2015-07-01 01:07:00,59.9,54.1,29.86,West,270,0.0,0.0,81,0.00,,,0.00,Wunderground v.1.15,2015-07-01 06:07:00,
2015-07-01 01:13:00,59.9,54.4,29.86,West,270,0.0,0.0,82,0.00,,,0.00,Wunderground v.1.15,2015-07-01 06:13:00,
2015-07-01 01:18:00,59.9,54.4,29.86,West,270,0.0,0.0,82,0.00,,,0.00,Wunderground v.1.15,2015-07-01 06:18:00,
2015-07-01 01:24:00,59.9,54.7,29.86,West,270,0.0,0.0,83,0.00,,,0.00,Wunderground v.1.15,2015-07-01 06:24:00,
2015-07-01 01:29:00,59.9,55.1,29.86,SSW,195,0.0,0.0,84,0.00,,,0.00,Wunderground v.1.15,2015-07-01 06:29:00,
2015-07-01 01:35:00,60.2,55.7,29.86,SSE,147,0.0,0.0,85,0.00,,,0.00,Wunderground v.1.15,2015-07-01 06:35:00,
2015-07-01 01:40:00,60.4,55.9,29.86,SSE,147,0.0,0.0,85,0.00,,,0.00,Wunderground v.1.15,2015-07-01 06:40:00,
2015-07-01 01:46:00,60.5,56.3,29.86,SE,144,0.0,1.0,86,0.00,,,0.00,Wunderground v.1.15,2015-07-01 06:46:00,
2015-07-01 01:52:00,60.7,56.5,29.86,SE,144,0.0,0.0,86,0.00,,,0.00,Wunderground v.1.15,2015-07-01 06:52:00,
2015-07-01 01:58:00,60.7,56.5,29.86,SE,144,0.0,0.0,86,0.00,,,0.00,Wunderground v.1.15,2015-07-01 06:58:00,
2015-07-01 02:03:00,60.9,57.0,29.86,SE,144,0.0,0.0,87,0.00,,,0.00,Wunderground v.1.15,2015-07-01 07:03:00,
2015-07-01 02:09:00,60.9,57.0,29.86,SE,144,0.0,0.0,87,0.00,,,0.00,Wunderground v.1.15,2015-07-01 07:09:00,
2015-07-01 02:14:00,60.9,57.0,29.86,SE,144,0.0,0.0,87,0.00,,,0.00,Wunderground v.1.15,2015-07-01 07:14:00,
2015-07-01 02:20:00,60.9,57.0,29.86,SE,144,0.0,0.0,87,0.00,,,0.00,Wunderground v.1.15,2015-07-01 07:20:00,
2015-07-01 02:25:00,60.9,57.0,29.86,SE,144,0.0,0.0,87,0.00,,,0.00,Wunderground v.1.15,2015-07-01 07:25:00,
2015-07-01 02:31:00,60.9,57.0,29.86,SE,144,0.0,0.0,87,0.00,,,0.00,Wunderground v.1.15,2015-07-01 07:31:00,
2015-07-01 02:36:00,60.9,57.0,29.86,SE,144,0.0,0.0,87,0.00,,,0.00,Wunderground v.1.15,2015-07-01 07:36:00,
2015-07-01 02:41:00,60.9,57.0,29.86,SE,144,0.0,0.0,87,0.00,,,0.00,Wunderground v.1.15,2015-07-01 07:41:00,
2015-07-01 02:46:00,60.7,56.8,29.87,SE,144,0.0,0.0,87,0.00,,,0.00,Wunderground v.1.15,2015-07-01 07:46:00,
2015-07-01 02:52:00,60.7,56.8,29.87,SE,144,0.0,0.0,87,0.00,,,0.00,Wunderground v.1.15,2015-07-01 07:52:00,
2015-07-01 02:57:00,60.5,56.6,29.87,SE,144,0.0,2.0,87,0.00,,,0.00,Wunderground v.1.15,2015-07-01 07:57:00,
2015-07-01 03:02:00,60.4,56.5,29.88,SE,144,0.0,3.0,87,0.00,,,0.00,Wunderground v.1.15,2015-07-01 08:02:00,
2015-07-01 03:08:00,60.2,56.3,29.88,SE,144,0.0,3.0,87,0.00,,,0.00,Wunderground v.1.15,2015-07-01 08:08:00,
2015-07-01 03:14:00,60.1,56.2,29.88,SE,144,0.0,0.0,87,0.00,,,0.00,Wunderground v.1.15,2015-07-01 08:14:00,
2015-07-01 03:20:00,60.1,56.2,29.88,SE,144,0.0,0.0,87,0.00,,,0.00,Wunderground v.1.15,2015-07-01 08:20:00,
2015-07-01 03:26:00,59.9,56.0,29.88,SE,144,0.0,0.0,87,0.00,,,0.00,Wunderground v.1.15,2015-07-01 08:26:00,
2015-07-01 03:31:00,59.8,55.9,29.88,SE,144,0.0,0.0,87,0.00,,,0.00,Wunderground v.1.15,2015-07-01 08:31:00,
2015-07-01 03:37:00,59.6,55.7,29.88,SE,144,0.0,0.0,87,0.00,,,0.00,Wunderground v.1.15,2015-07-01 08:37:00,
2015-07-01 03:42:00,59.5,55.6,29.88,SE,144,0.0,0.0,87,0.00,,,0.00,Wunderground v.1.15,2015-07-01 08:42:00,
2015-07-01 03:48:00,59.5,55.6,29.87,SE,144,0.0,0.0,87,0.00,,,0.00,Wunderground v.1.15,2015-07-01 08:48:00,
2015-07-01 03:53:00,59.5,55.6,29.87,SE,144,0.0,0.0,87,0.00,,,0.00,Wunderground v.1.15,2015-07-01 08:53:00,
2015-07-01 03:59:00,59.3,55.4,29.88,SE,144,0.0,0.0,87,0.00,,,0.00,Wunderground v.1.15,2015-07-01 08:59:00,
2015-07-01 04:05:00,59.2,55.3,29.88,SE,144,0.0,5.0,87,0.00,,,0.00,Wunderground v.1.15,2015-07-01 09:05:00,
2015-07-01 04:10:00,59.2,55.0,29.88,SE,144,0.0,0.0,86,0.00,,,0.00,Wunderground v.1.15,2015-07-01 09:10:00,
2015-07-01 04:15:00,59.0,54.8,29.88,SE,144,0.0,0.0,86,0.00,,,0.00,Wunderground v.1.15,2015-07-01 09:15:00,
2015-07-01 04:21:00,59.0,54.8,29.88,SE,144,0.0,0.0,86,0.00,,,0.00,Wunderground v.1.15,2015-07-01 09:21:00,
2015-07-01 04:26:00,58.9,54.7,29.88,SE,144,0.0,0.0,86,0.00,,,0.00,Wunderground v.1.15,2015-07-01 09:26:00,
2015-07-01 04:32:00,58.9,54.7,29.88,SE,144,0.0,0.0,86,0.00,,,0.00,Wunderground v.1.15,2015-07-01 09:32:00,
2015-07-01 04:38:00,58.9,54.7,29.88,SE,144,0.0,0.0,86,0.00,,,0.00,Wunderground v.1.15,2015-07-01 09:38:00,
2015-07-01 04:43:00,58.9,54.7,29.88,SE,144,0.0,0.0,86,0.00,,,0.00,Wunderground v.1.15,2015-07-01 09:43:00,
2015-07-01 04:49:00,58.9,54.7,29.88,SE,144,0.0,0.0,86,0.00,,,0.00,Wunderground v.1.15,2015-07-01 09:49:00,
2015-07-01 04:54:00,58.9,54.7,29.88,SE,144,0.0,0.0,86,0.00,,,0.00,Wunderground v.1.15,2015-07-01 09:54:00,
2015-07-01 05:00:00,58.9,54.7,29.88,SE,144,0.0,0.0,86,0.00,,,0.00,Wunderground v.1.15,2015-07-01 10:00:00,
2015-07-01 05:05:00,58.9,54.7,29.88,SE,144,0.0,1.0,86,0.00,,,0.00,Wunderground v.1.15,2015-07-01 10:05:00,
2015-07-01 05:11:00,58.9,54.7,29.88,SE,144,0.0,0.0,86,0.00,,,0.00,Wunderground v.1.15,2015-07-01 10:11:00,
2015-07-01 05:16:00,58.9,54.7,29.88,SE,144,0.0,0.0,86,0.00,,,0.00,Wunderground v.1.15,2015-07-01 10:16:00,
2015-07-01 05:22:00,58.7,54.5,29.88,SE,144,0.0,0.0,86,0.00,,,0.00,Wunderground v.1.15,2015-07-01 10:22:00,
2015-07-01 05:28:00,58.7,54.5,29.88,SE,144,0.0,0.0,86,0.00,,,0.00,Wunderground v.1.15,2015-07-01 10:28:00,
2015-07-01 05:33:00,58.7,54.5,29.88,SE,144,0.0,0.0,86,0.00,,,0.00,Wunderground v.1.15,2015-07-01 10:33:00,
2015-07-01 05:39:00,58.6,54.4,29.88,SE,144,0.0,0.0,86,0.00,,,0.00,Wunderground v.1.15,2015-07-01 10:39:00,
2015-07-01 05:44:00,58.4,53.9,29.89,SE,144,0.0,0.0,85,0.00,,,0.00,Wunderground v.1.15,2015-07-01 10:44:00,
2015-07-01 05:49:00,58.1,53.3,29.89,SE,144,0.0,0.0,84,0.00,,,0.00,Wunderground v.1.15,2015-07-01 10:49:00,
2015-07-01 05:55:00,58.0,52.9,29.89,WSW,256,0.0,0.0,83,0.00,,,0.00,Wunderground v.1.15,2015-07-01 10:55:00,
2015-07-01 06:00:00,57.8,52.7,29.89,WSW,256,0.0,0.0,83,0.00,,,0.00,Wunderground v.1.15,2015-07-01 11:00:00,
2015-07-01 06:05:00,57.6,52.1,29.89,WSW,256,0.0,0.0,82,0.00,,,0.00,Wunderground v.1.15,2015-07-01 11:05:00,
2015-07-01 06:11:00,57.5,51.4,29.89,West,265,0.0,0.0,80,0.00,,,0.00,Wunderground v.1.15,2015-07-01 11:11:00,
2015-07-01 06:16:00,57.5,51.4,29.89,West,265,0.0,0.0,80,0.00,,,0.00,Wunderground v.1.15,2015-07-01 11:16:00,
2015-07-01 06:21:00,57.3,51.2,29.89,West,265,0.0,0.0,80,0.00,,,0.00,Wunderground v.1.15,2015-07-01 11:21:00,
2015-07-01 06:27:00,57.5,51.4,29.89,West,268,0.0,0.0,80,0.00,,,0.00,Wunderground v.1.15,2015-07-01 11:27:00,
2015-07-01 06:33:00,57.3,50.8,29.91,West,268,0.0,0.0,79,0.00,,,0.00,Wunderground v.1.15,2015-07-01 11:33:00,
2015-07-01 06:38:00,57.3,50.8,29.91,West,268,0.0,0.0,79,0.00,,,0.00,Wunderground v.1.15,2015-07-01 11:38:00,
2015-07-01 06:44:00,57.3,50.5,29.91,WNW,291,0.0,0.0,78,0.00,,,0.00,Wunderground v.1.15,2015-07-01 11:44:00,
2015-07-01 06:49:00,57.5,50.7,29.91,WNW,292,0.0,0.0,78,0.00,,,0.00,Wunderground v.1.15,2015-07-01 11:49:00,
2015-07-01 06:55:00,57.5,50.7,29.91,WNW,292,0.0,0.0,78,0.00,,,0.00,Wunderground v.1.15,2015-07-01 11:55:00,
2015-07-01 07:00:00,57.5,50.7,29.92,WNW,292,0.0,0.0,78,0.00,,,0.00,Wunderground v.1.15,2015-07-01 12:00:00,
2015-07-01 07:05:00,57.5,50.7,29.92,WNW,292,0.0,0.0,78,0.00,,,0.00,Wunderground v.1.15,2015-07-01 12:05:00,
2015-07-01 07:11:00,57.5,50.7,29.92,WNW,296,0.0,0.0,78,0.00,,,0.00,Wunderground v.1.15,2015-07-01 12:11:00,
2015-07-01 07:17:00,57.5,50.7,29.92,WNW,296,0.0,0.0,78,0.00,,,0.00,Wunderground v.1.15,2015-07-01 12:17:00,
2015-07-01 07:22:00,57.6,50.8,29.92,WNW,296,0.0,0.0,78,0.00,,,0.00,Wunderground v.1.15,2015-07-01 12:22:00,
2015-07-01 07:27:00,57.6,50.8,29.92,WNW,296,0.0,0.0,78,0.00,,,0.00,Wunderground v.1.15,2015-07-01 12:27:00,
2015-07-01 07:33:00,57.6,50.8,29.92,WNW,296,0.0,0.0,78,0.00,,,0.00,Wunderground v.1.15,2015-07-01 12:33:00,
2015-07-01 07:38:00,57.8,51.0,29.92,WNW,296,0.0,1.0,78,0.00,,,0.00,Wunderground v.1.15,2015-07-01 12:38:00,
2015-07-01 07:44:00,57.6,50.4,29.92,SW,230,0.0,3.0,77,0.00,,,0.00,Wunderground v.1.15,2015-07-01 12:44:00,
2015-07-01 07:50:00,57.8,50.3,29.92,WSW,256,0.0,0.0,76,0.00,,,0.00,Wunderground v.1.15,2015-07-01 12:50:00,
2015-07-01 07:55:00,57.8,49.9,29.92,West,261,0.0,0.0,75,0.00,,,0.00,Wunderground v.1.15,2015-07-01 12:55:00,
2015-07-01 08:01:00,58.0,50.1,29.93,West,261,0.0,1.0,75,0.00,,,0.00,Wunderground v.1.15,2015-07-01 13:01:00,
2015-07-01 08:07:00,58.0,49.8,29.93,West,261,0.0,1.0,74,0.00,,,0.00,Wunderground v.1.15,2015-07-01 13:07:00,
2015-07-01 08:13:00,58.0,49.8,29.93,NW,309,0.0,1.0,74,0.00,,,0.00,Wunderground v.1.15,2015-07-01 13:13:00,
2015-07-01 08:19:00,58.1,49.9,29.93,West,271,0.0,1.0,74,0.00,,,0.00,Wunderground v.1.15,2015-07-01 13:19:00,
2015-07-01 08:25:00,58.3,50.0,29.93,West,270,0.0,0.0,74,0.00,,,0.00,Wunderground v.1.15,2015-07-01 13:25:00,
2015-07-01 08:31:00,58.4,50.5,29.93,West,270,0.0,0.0,75,0.00,,,0.00,Wunderground v.1.15,2015-07-01 13:31:00,
2015-07-01 08:37:00,58.6,50.3,29.93,West,274,1.0,2.0,74,0.00,,,0.00,Wunderground v.1.15,2015-07-01 13:37:00,
2015-07-01 08:43:00,58.6,50.0,29.93,West,274,0.0,1.0,73,0.00,,,0.00,Wunderground v.1.15,2015-07-01 13:43:00,
2015-07-01 08:48:00,58.9,50.3,29.93,WNW,289,0.0,1.0,73,0.00,,,0.00,Wunderground v.1.15,2015-07-01 13:48:00,
2015-07-01 08:54:00,59.0,50.0,29.93,WNW,295,0.0,0.0,72,0.00,,,0.00,Wunderground v.1.15,2015-07-01 13:54:00,
2015-07-01 08:59:00,59.2,50.2,29.93,WNW,295,0.0,0.0,72,0.00,,,0.00,Wunderground v.1.15,2015-07-01 13:59:00,
2015-07-01 09:04:00,59.3,49.5,29.93,WNW,295,0.0,0.0,70,0.00,,,0.00,Wunderground v.1.15,2015-07-01 14:04:00,
2015-07-01 09:10:00,59.6,49.8,29.93,WNW,295,0.0,0.0,70,0.00,,,0.00,Wunderground v.1.15,2015-07-01 14:10:00,
2015-07-01 09:15:00,59.9,50.1,29.93,WNW,295,0.0,0.0,70,0.00,,,0.00,Wunderground v.1.15,2015-07-01 14:15:00,
2015-07-01 09:20:00,60.2,50.0,29.93,WNW,295,0.0,0.0,69,0.00,,,0.00,Wunderground v.1.15,2015-07-01 14:20:00,
2015-07-01 09:26:00,60.5,50.3,29.93,WNW,295,0.0,0.0,69,0.00,,,0.00,Wunderground v.1.15,2015-07-01 14:26:00,
2015-07-01 09:31:00,60.9,50.7,29.93,WNW,299,0.0,0.0,69,0.00,,,0.00,Wunderground v.1.15,2015-07-01 14:31:00,
2015-07-01 09:36:00,61.2,50.2,29.93,WNW,292,0.0,0.0,67,0.00,,,0.00,Wunderground v.1.15,2015-07-01 14:36:00,
2015-07-01 09:42:00,61.6,50.5,29.93,WNW,287,0.0,2.0,67,0.00,,,0.00,Wunderground v.1.15,2015-07-01 14:42:00,
2015-07-01 09:47:00,62.0,50.9,29.93,WNW,284,0.0,2.0,67,0.00,,,0.00,Wunderground v.1.15,2015-07-01 14:47:00,
2015-07-01 09:53:00,62.3,50.4,29.93,WNW,284,0.0,0.0,65,0.00,,,0.00,Wunderground v.1.15,2015-07-01 14:53:00,
2015-07-01 09:59:00,62.6,50.7,29.92,WNW,285,0.0,0.0,65,0.00,,,0.00,Wunderground v.1.15,2015-07-01 14:59:00,
2015-07-01 10:05:00,62.9,50.5,29.92,West,281,0.0,1.0,64,0.00,,,0.00,Wunderground v.1.15,2015-07-01 15:05:00,
2015-07-01 10:10:00,63.2,49.5,29.92,WNW,296,0.0,0.0,61,0.00,,,0.00,Wunderground v.1.15,2015-07-01 15:10:00,
2015-07-01 10:15:00,63.7,50.4,29.92,WNW,298,0.0,0.0,62,0.00,,,0.00,Wunderground v.1.15,2015-07-01 15:15:00,
2015-07-01 10:21:00,64.2,50.5,29.92,WNW,282,0.0,0.0,61,0.00,,,0.00,Wunderground v.1.15,2015-07-01 15:21:00,
2015-07-01 10:26:00,64.7,50.5,29.92,WNW,285,0.0,6.0,60,0.00,,,0.00,Wunderground v.1.15,2015-07-01 15:26:00,
2015-07-01 10:32:00,65.0,50.3,29.93,WSW,258,1.0,2.0,59,0.00,,,0.00,Wunderground v.1.15,2015-07-01 15:32:00,
2015-07-01 10:37:00,65.5,49.9,29.93,West,265,1.0,2.0,57,0.00,,,0.00,Wunderground v.1.15,2015-07-01 15:37:00,
2015-07-01 10:42:00,65.8,50.1,29.93,West,265,0.0,0.0,57,0.00,,,0.00,Wunderground v.1.15,2015-07-01 15:42:00,
2015-07-01 10:48:00,66.4,51.6,29.92,West,267,0.0,0.0,59,0.00,,,0.00,Wunderground v.1.15,2015-07-01 15:48:00,
2015-07-01 10:54:00,66.9,50.2,29.92,WSW,253,1.0,7.0,55,0.00,,,0.00,Wunderground v.1.15,2015-07-01 15:54:00,
2015-07-01 10:59:00,67.4,50.2,29.93,West,274,3.0,7.0,54,0.00,,,0.00,Wunderground v.1.15,2015-07-01 15:59:00,